[Iaude] MPEC T179: 2023 TC7 [a=0.96,e=0.16,i=10.5,H=26.5]

mpec at marsden.cfa.harvard.edu mpec at marsden.cfa.harvard.edu
Thu Oct 12 01:56:17 EDT 2023


M.P.E.C. 2023-T179                             Issued 2023 October 12, 05:54 UT

     The Minor Planet Electronic Circulars contain information on unusual
         minor planets, routine data on comets and natural satellites,
         and occasional editorial announcements.  They are published
    on behalf of Division F of the International Astronomical Union by the
          Minor Planet Center, Smithsonian Astrophysical Observatory,
                          Cambridge, MA 02138, U.S.A.
			  
             Prepared using the Tamkin Foundation Computer Network

                              MPC at CFA.HARVARD.EDU
            URL https://www.minorplanetcenter.net/    ISSN 1523-6714

                                    2023 TC7                                    


Observations:
     K23T07C*1C2023 10 11.38476102 51 31.295-20 58 09.66         18.86GVET179703
     K23T07C 1C2023 10 11.39006502 51 26.305-20 57 06.62         18.69GVET179703
     K23T07C 1C2023 10 11.39537202 51 21.352-20 56 05.42         18.55GVET179703
     K23T07C 1C2023 10 11.40068002 51 16.276-20 55 03.11         18.70GVET179703
     K23T07C  C2023 10 11.41776402 50 58.331-20 51 48.77         18.6 GVET179H01
     K23T07C  C2023 10 11.42099402 50 55.294-20 51 10.11         18.6 GVET179H01
     K23T07C  C2023 10 11.43981402 50 37.666-20 47 22.82         18.5 GVET179H01
     K23T07C  C2023 10 11.44465602 50 33.133-20 46 23.35         18.4 GVET179H01
     K23T07C KC2023 10 11.48601502 49 56.039-20 37 43.36         18.93GVET179I52
     K23T07C KC2023 10 11.48653002 49 55.538-20 37 37.06         18.63GVET179I52
     K23T07C KC2023 10 11.48704002 49 55.063-20 37 30.50         18.88GVET179I52
     K23T07C KC2023 10 11.48755302 49 54.602-20 37 23.74         18.66GVET179I52
     K23T07C KC2023 10 11.64942202 48 19.20 -20 04 33.5          18.5 GVET179900
     K23T07C KC2023 10 11.65678302 48 11.53 -20 02 58.9          18.5 GVET179900
     K23T07C KC2023 10 11.66414402 48 03.88 -20 01 23.5          18.7 GVET179900
     K23T07C KC2023 10 11.92379502 44 31.10 -19 00 44.2          18.9 GXET179595
     K23T07C KC2023 10 11.92667002 44 27.95 -19 00 01.5          18.4 GXET179595
     K23T07C pC2023 10 11.92954702 44 24.83 -18 59 19.4                XET179595
     K23T07C KB2023 10 11.96896602 43 47.82 -18 49 04.5          18.5 GVET179I93
     K23T07C KB2023 10 11.97199002 43 44.38 -18 48 18.7          18.2 GVET179I93
     K23T07C KB2023 10 11.97495002 43 41.04 -18 47 33.6          18.2 GVET179I93
     K23T07C KC2023 10 12.01358402 42 56.79 -18 37 31.4          18.3 GXET179958
     K23T07C KC2023 10 12.01717102 42 52.57 -18 36 35.0          18.4 GXET179958
     K23T07C KC2023 10 12.02076302 42 48.31 -18 35 38.8          19.0 GXET179958

Observer details:
595 Farra d'Isonzo.  Observer E. Pettarin.  0.61-m f/4.5 reflector + CCD.
703 Catalina Sky Survey.  Observer G. J. Leonard.  Measurers E. C. Beshore, D.
    Fay, J. B. Fazekas, D. C. Fuls, A. R. Gibbs, A. D. Grauer, H. Groeller, J.
    K. Hogan, R. A. Kowalski, S. M. Larson, G. J. Leonard, D. Rankin, R. L.
    Seaman, F. C. Shelly, K. W. Wierzchos.  0.68-m Schmidt + 10K CCD.
900 Moriyama.  Observer Y. Ikari.  0.26-m f/7.0 reflector + CCD.
958 Observatoire de Dax.  Observers P. Dupouy, J. B. de Vanssay.  Measurer P.
    Dupouy.  0.43-m f/2.7 Reflector + CCD.
H01 Magdalena Ridge Observatory, Socorro.  Observers W. H. Ryan, E. V. Ryan.
    Measurer W. H. Ryan.  2.4-m f/8.9 Ritchey-Chretien + CCD.
I52 Steward Observatory, Mt. Lemmon Station.  Observer J. B. Fazekas.
    Measurers E. C. Beshore, D. Fay, J. B. Fazekas, D. C. Fuls, A. R. Gibbs,
    A. D. Grauer, H. Groeller, J. K. Hogan, R. A. Kowalski, S. M. Larson, G.
    J. Leonard, D. Rankin, R. L. Seaman, F. C. Shelly, K. W. Wierzchos.  1.0-m
    prime focus + CCD.
I93 St Pardon de Conques.  Observer F. Losse.  0.40-m f/3.7 reflector + CMO.

Orbital elements:
2023 TC7                                                 Earth MOID = 0.0043 AU
Epoch 2023 Sept. 13.0 TT = JDT 2460200.5                Veres                   
M 230.34758              (2000.0)            P               Q                  
n   1.04367079     Peri.  114.11004     -0.69577669     -0.71544733             
a   0.9625583      Node    20.40498     +0.57499813     -0.60778628             
e   0.1568818      Incl.   10.49074     +0.43043228     -0.34457359             
P   0.94           H   26.59          G   0.15           U   6                  
Residuals in seconds of arc
231011 703  0.2-  2.3-    231011 I52  0.2+  0.2+    231011 595  0.5+  0.1+
231011 703  0.2-  0.1-    231011 I52  0.1-  0.1-    231011 595  1.2+  0.1-
231011 703  0.5+  0.2-    231011 I52  0.1-  0.0     231011 I93  0.1-  0.1-
231011 703  0.5-  0.4+    231011 I52  0.1+  0.2+    231011 I93  0.3-  0.1+
231011 H01  0.1+  0.0     231011 900  0.5+  0.0     231011 I93  0.0   0.3+
231011 H01  0.0   0.1+    231011 900  0.1-  0.1-    231012 958  0.4-  0.0
231011 H01  0.0   0.0     231011 900  0.3+  0.2-    231012 958  0.0   0.2-
231011 H01  0.1-  0.2+    231011 595  0.4+  0.4-    231012 958  0.2+  0.8-

Ephemeris:
2023 TC7                 a,e,i = 0.96, 0.16, 10                  q = 0.8116
Date    TT    R. A. (2000) Decl.     Delta      r    Elong.  Phase     V
2023 09 12    03 20 47.9 -29 54 51   0.1293  1.0727   117.6    56.3    24.3
...
2023 09 27    03 27 15.7 -29 54 56   0.07102 1.0439   124.0    52.7    22.9
...
2023 10 05    03 21 44.1 -28 20 45   0.03986 1.0260   129.3    48.9    21.5
...
2023 10 11    02 55 48.9 -21 57 32   0.01676 1.0115   140.2    39.2    19.3
2023 10 12    02 43 00.8 -18 31 33   0.01304 1.0090   145.1    34.5    18.6
2023 10 13    02 21 21.1 -12 17 19   0.0094671.0065   153.5    26.2    17.7
...
2023 10 19    16 46 41.4 +42 31 33   0.01567 0.9906    68.4   110.7    21.8
...
2023 10 27    15 58 55.9 +35 36 17   0.04618 0.9685    55.4   122.4    24.9
...
2023 11 11    15 41 47.8 +31 20 18   0.1043  0.9259    49.5   125.6    26.8

M. P. C. Staff               (C) Copyright 2023 MPC           M.P.E.C. 2023-T179





More information about the Iaude mailing list